Year,Month,Day,Hour,Minute,Value (Times are PST for temperature in C)
2007,08,30,00,00,19.80
2007,08,30,00,01,19.80
2007,08,30,00,02,19.80
2007,08,30,00,03,19.80
2007,08,30,00,04,19.80
2007,08,30,00,05,19.80
2007,08,30,00,06,19.70
2007,08,30,00,07,19.70
2007,08,30,00,08,19.70
2007,08,30,00,09,19.70
2007,08,30,00,10,19.70
2007,08,30,00,11,19.80
2007,08,30,00,12,19.80
2007,08,30,00,13,19.80
2007,08,30,00,14,19.80
2007,08,30,00,15,19.80
2007,08,30,00,16,19.80
2007,08,30,00,17,19.80
2007,08,30,00,18,19.80
2007,08,30,00,19,19.80
2007,08,30,00,20,19.80
2007,08,30,00,21,19.70
2007,08,30,00,22,19.70
2007,08,30,00,23,19.70
2007,08,30,00,24,19.70
2007,08,30,00,25,19.70
2007,08,30,00,26,19.70
2007,08,30,00,27,19.60
2007,08,30,00,28,19.60
2007,08,30,00,29,19.60
2007,08,30,00,30,19.60
2007,08,30,00,31,19.60
2007,08,30,00,32,19.60
2007,08,30,00,33,19.70
2007,08,30,00,34,19.70
2007,08,30,00,35,19.70
2007,08,30,00,36,19.80
2007,08,30,00,37,19.80
2007,08,30,00,38,19.80
2007,08,30,00,39,19.80
2007,08,30,00,40,19.80
2007,08,30,00,41,19.80
2007,08,30,00,42,19.80
2007,08,30,00,43,19.70
2007,08,30,00,44,19.60
2007,08,30,00,45,19.50
2007,08,30,00,46,19.40
2007,08,30,00,47,19.30
2007,08,30,00,48,19.20
2007,08,30,00,49,19.10
2007,08,30,00,50,19.00
2007,08,30,00,51,18.90
2007,08,30,00,52,18.80
2007,08,30,00,53,18.70
2007,08,30,00,54,18.50
2007,08,30,00,55,18.30
2007,08,30,00,56,18.20
2007,08,30,00,57,18.00
2007,08,30,00,58,17.90
2007,08,30,00,59,17.80
2007,08,30,01,00,17.70
2007,08,30,01,01,17.60
2007,08,30,01,02,17.50
2007,08,30,01,03,17.40
2007,08,30,01,04,17.40
2007,08,30,01,05,17.30
2007,08,30,01,06,17.20
2007,08,30,01,07,17.20
2007,08,30,01,08,17.10
2007,08,30,01,09,17.10
2007,08,30,01,10,17.00
2007,08,30,01,11,16.90
2007,08,30,01,12,16.90
2007,08,30,01,13,16.90
2007,08,30,01,14,16.80
2007,08,30,01,15,16.80
2007,08,30,01,16,16.80
2007,08,30,01,17,16.70
2007,08,30,01,18,16.70
2007,08,30,01,19,16.70
2007,08,30,01,20,16.70
2007,08,30,01,21,16.60
2007,08,30,01,22,16.60
2007,08,30,01,23,16.60
2007,08,30,01,24,16.60
2007,08,30,01,25,16.50
2007,08,30,01,26,16.40
2007,08,30,01,27,16.40
2007,08,30,01,28,16.40
2007,08,30,01,29,16.30
2007,08,30,01,30,16.30
2007,08,30,01,31,16.30
2007,08,30,01,32,16.30
2007,08,30,01,33,16.30
2007,08,30,01,34,16.30
2007,08,30,01,35,16.30
2007,08,30,01,36,16.30
2007,08,30,01,37,16.30
2007,08,30,01,38,16.30
2007,08,30,01,39,16.30
2007,08,30,01,40,16.20
2007,08,30,01,41,16.20
2007,08,30,01,42,16.20
2007,08,30,01,43,16.20
2007,08,30,01,44,16.20
2007,08,30,01,45,16.20
2007,08,30,01,46,16.20
2007,08,30,01,47,16.20
2007,08,30,01,48,16.20
2007,08,30,01,49,16.10
2007,08,30,01,50,16.10
2007,08,30,01,51,16.10
2007,08,30,01,52,16.10
2007,08,30,01,53,16.10
2007,08,30,01,54,16.10
2007,08,30,01,55,16.10
2007,08,30,01,56,16.10
2007,08,30,01,57,16.10
2007,08,30,01,58,16.00
2007,08,30,01,59,16.00
2007,08,30,02,00,16.00
2007,08,30,02,01,16.00
2007,08,30,02,02,16.00
2007,08,30,02,03,15.90
2007,08,30,02,04,15.90
2007,08,30,02,05,15.90
2007,08,30,02,06,15.90
2007,08,30,02,07,15.90
2007,08,30,02,08,15.90
2007,08,30,02,09,16.00
2007,08,30,02,10,16.00
2007,08,30,02,11,16.00
2007,08,30,02,12,16.00
2007,08,30,02,13,16.00
2007,08,30,02,14,16.00
2007,08,30,02,15,16.00
2007,08,30,02,16,15.90
2007,08,30,02,17,15.90
2007,08,30,02,18,15.90
2007,08,30,02,19,15.90
2007,08,30,02,20,15.90
2007,08,30,02,21,15.90
2007,08,30,02,22,15.90
2007,08,30,02,23,15.90
2007,08,30,02,24,15.90
2007,08,30,02,25,15.90
2007,08,30,02,26,15.90
2007,08,30,02,27,15.90
2007,08,30,02,28,15.90
2007,08,30,02,29,15.90
2007,08,30,02,30,15.80
2007,08,30,02,31,15.80
2007,08,30,02,32,15.80
2007,08,30,02,33,15.80
2007,08,30,02,34,15.80
2007,08,30,02,35,15.80
2007,08,30,02,36,15.70
2007,08,30,02,37,15.70
2007,08,30,02,38,15.70
2007,08,30,02,39,15.70
2007,08,30,02,40,15.60
2007,08,30,02,41,15.60
2007,08,30,02,42,15.60
2007,08,30,02,43,15.60
2007,08,30,02,44,15.60
2007,08,30,02,45,15.60
2007,08,30,02,46,15.60
2007,08,30,02,47,15.60
2007,08,30,02,48,15.60
2007,08,30,02,49,15.60
2007,08,30,02,50,15.60
2007,08,30,02,51,15.60
2007,08,30,02,52,15.60
2007,08,30,02,53,15.60
2007,08,30,02,54,15.60
2007,08,30,02,55,15.60
2007,08,30,02,56,15.60
2007,08,30,02,57,15.60
2007,08,30,02,58,15.60
2007,08,30,02,59,15.60
2007,08,30,03,00,15.60
2007,08,30,03,01,15.60
2007,08,30,03,02,15.60
2007,08,30,03,03,15.60
2007,08,30,03,04,15.60
2007,08,30,03,05,15.50
2007,08,30,03,06,15.50
2007,08,30,03,07,15.50
2007,08,30,03,08,15.40
2007,08,30,03,09,15.40
2007,08,30,03,10,15.40
2007,08,30,03,11,15.30
2007,08,30,03,12,15.30
2007,08,30,03,13,15.30
2007,08,30,03,14,15.30
2007,08,30,03,15,15.20
2007,08,30,03,16,15.20
2007,08,30,03,17,15.20
2007,08,30,03,18,15.20
2007,08,30,03,19,15.20
2007,08,30,03,20,15.20
2007,08,30,03,21,15.20
2007,08,30,03,22,15.20
2007,08,30,03,23,15.20
2007,08,30,03,24,15.20
2007,08,30,03,25,15.20
2007,08,30,03,26,15.20
2007,08,30,03,27,15.20
2007,08,30,03,28,15.10
2007,08,30,03,29,15.10
2007,08,30,03,30,15.10
2007,08,30,03,31,15.10
2007,08,30,03,32,15.00
2007,08,30,03,33,15.00
2007,08,30,03,34,15.00
2007,08,30,03,35,15.00
2007,08,30,03,36,15.00
2007,08,30,03,37,15.00
2007,08,30,03,38,15.00
2007,08,30,03,39,15.00
2007,08,30,03,40,15.00
2007,08,30,03,41,15.00
2007,08,30,03,42,15.00
2007,08,30,03,43,15.00
2007,08,30,03,44,15.00
2007,08,30,03,45,15.00
2007,08,30,03,46,15.00
2007,08,30,03,47,15.00
2007,08,30,03,48,15.00
2007,08,30,03,49,15.00
2007,08,30,03,50,15.00
2007,08,30,03,51,15.00
2007,08,30,03,52,15.00
2007,08,30,03,53,15.00
2007,08,30,03,54,15.00
2007,08,30,03,55,15.00
2007,08,30,03,56,15.00
2007,08,30,03,57,15.00
2007,08,30,03,58,15.00
2007,08,30,03,59,15.00
2007,08,30,04,00,15.00
2007,08,30,04,01,15.00
2007,08,30,04,02,15.00
2007,08,30,04,03,15.00
2007,08,30,04,04,15.00
2007,08,30,04,05,15.00
2007,08,30,04,06,15.00
2007,08,30,04,07,15.00
2007,08,30,04,08,15.00
2007,08,30,04,09,15.00
2007,08,30,04,10,15.00
2007,08,30,04,11,14.90
2007,08,30,04,12,14.90
2007,08,30,04,13,14.90
2007,08,30,04,14,14.80
2007,08,30,04,15,14.80
2007,08,30,04,16,14.80
2007,08,30,04,17,14.80
2007,08,30,04,18,14.80
2007,08,30,04,19,14.80
2007,08,30,04,20,14.80
2007,08,30,04,21,14.70
2007,08,30,04,22,14.70
2007,08,30,04,23,14.70
2007,08,30,04,24,14.70
2007,08,30,04,25,14.70
2007,08,30,04,26,14.70
2007,08,30,04,27,14.70
2007,08,30,04,28,14.60
2007,08,30,04,29,14.60
2007,08,30,04,30,14.60
2007,08,30,04,31,14.60
2007,08,30,04,32,14.60
2007,08,30,04,33,14.60
2007,08,30,04,34,14.60
2007,08,30,04,35,14.60
2007,08,30,04,36,14.60
2007,08,30,04,37,14.60
2007,08,30,04,38,14.50
2007,08,30,04,39,14.50
2007,08,30,04,40,14.50
2007,08,30,04,41,14.50
2007,08,30,04,42,14.40
2007,08,30,04,43,14.40
2007,08,30,04,44,14.40
2007,08,30,04,45,14.40
2007,08,30,04,46,14.40
2007,08,30,04,47,14.40
2007,08,30,04,48,14.30
2007,08,30,04,49,14.30
2007,08,30,04,50,14.30
2007,08,30,04,51,14.30
2007,08,30,04,52,14.30
2007,08,30,04,53,14.30
2007,08,30,04,54,14.30
2007,08,30,04,55,14.30
2007,08,30,04,56,14.20
2007,08,30,04,57,14.20
2007,08,30,04,58,14.20
2007,08,30,04,59,14.20
2007,08,30,05,00,14.20
2007,08,30,05,01,14.10
2007,08,30,05,02,14.10
2007,08,30,05,03,14.10
2007,08,30,05,04,14.10
2007,08,30,05,05,14.10
2007,08,30,05,06,14.00
2007,08,30,05,07,14.00
2007,08,30,05,08,14.00
2007,08,30,05,09,14.00
2007,08,30,05,10,13.90
2007,08,30,05,11,13.90
2007,08,30,05,12,13.90
2007,08,30,05,13,13.90
2007,08,30,05,14,13.80
2007,08,30,05,15,13.80
2007,08,30,05,16,13.80
2007,08,30,05,17,13.80
2007,08,30,05,18,13.80
2007,08,30,05,19,13.80
2007,08,30,05,20,13.80
2007,08,30,05,21,13.80
2007,08,30,05,22,13.80
2007,08,30,05,23,13.80
2007,08,30,05,24,13.80
2007,08,30,05,25,13.70
2007,08,30,05,26,13.70
2007,08,30,05,27,13.70
2007,08,30,05,28,13.70
2007,08,30,05,29,13.70
2007,08,30,05,30,13.70
2007,08,30,05,31,13.70
2007,08,30,05,32,13.70
2007,08,30,05,33,13.70
2007,08,30,05,34,13.70
2007,08,30,05,35,13.70
2007,08,30,05,36,13.70
2007,08,30,05,37,13.70
2007,08,30,05,38,13.70
2007,08,30,05,39,13.70
2007,08,30,05,40,13.70
2007,08,30,05,41,13.70
2007,08,30,05,42,13.70
2007,08,30,05,43,13.70
2007,08,30,05,44,13.60
2007,08,30,05,45,13.60
2007,08,30,05,46,13.60
2007,08,30,05,47,13.60
2007,08,30,05,48,13.60
2007,08,30,05,49,13.60
2007,08,30,05,50,13.60
2007,08,30,05,51,13.60
2007,08,30,05,52,13.60
2007,08,30,05,53,13.60
2007,08,30,05,54,13.60
2007,08,30,05,55,13.50
2007,08,30,05,56,13.50
2007,08,30,05,57,13.50
2007,08,30,05,58,13.50
2007,08,30,05,59,13.50
2007,08,30,06,00,13.50
2007,08,30,06,01,13.50
2007,08,30,06,02,13.50
2007,08,30,06,03,13.50
2007,08,30,06,04,13.60
2007,08,30,06,05,13.60
2007,08,30,06,06,13.60
2007,08,30,06,07,13.60
2007,08,30,06,08,13.60
2007,08,30,06,09,13.60
2007,08,30,06,10,13.60
2007,08,30,06,11,13.60
2007,08,30,06,12,13.70
2007,08,30,06,13,13.60
2007,08,30,06,14,13.60
2007,08,30,06,15,13.60
2007,08,30,06,16,13.60
2007,08,30,06,17,13.60
2007,08,30,06,18,13.60
2007,08,30,06,19,13.60
2007,08,30,06,20,13.60
2007,08,30,06,21,13.50
2007,08,30,06,22,13.50
2007,08,30,06,23,13.50
2007,08,30,06,24,13.40
2007,08,30,06,25,13.40
2007,08,30,06,26,13.40
2007,08,30,06,27,13.40
2007,08,30,06,28,13.30
2007,08,30,06,29,13.30
2007,08,30,06,30,13.30
2007,08,30,06,31,13.30
2007,08,30,06,32,13.30
2007,08,30,06,33,13.30
2007,08,30,06,34,13.30
2007,08,30,06,35,13.20
2007,08,30,06,36,13.20
2007,08,30,06,37,13.20
2007,08,30,06,38,13.20
2007,08,30,06,39,13.20
2007,08,30,06,40,13.20
2007,08,30,06,41,13.20
2007,08,30,06,42,13.20
2007,08,30,06,43,13.20
2007,08,30,06,44,13.20
2007,08,30,06,45,13.20
2007,08,30,06,46,13.20
2007,08,30,06,47,13.20
2007,08,30,06,48,13.20
2007,08,30,06,49,13.20
2007,08,30,06,50,13.20
2007,08,30,06,51,13.20
2007,08,30,06,52,13.20
2007,08,30,06,53,13.20
2007,08,30,06,54,13.20
2007,08,30,06,55,13.10
2007,08,30,06,56,13.10
2007,08,30,06,57,13.10
2007,08,30,06,58,13.10
2007,08,30,06,59,13.10
2007,08,30,07,00,13.10
2007,08,30,07,01,13.10
2007,08,30,07,02,13.10
2007,08,30,07,03,13.10
2007,08,30,07,04,13.10
2007,08,30,07,05,13.10
2007,08,30,07,06,13.20
2007,08,30,07,07,13.20
2007,08,30,07,08,13.20
2007,08,30,07,09,13.20
2007,08,30,07,10,13.20
2007,08,30,07,11,13.20
2007,08,30,07,12,13.20
2007,08,30,07,13,13.20
2007,08,30,07,14,13.30
2007,08,30,07,15,13.30
2007,08,30,07,16,13.30
2007,08,30,07,17,13.30
2007,08,30,07,18,13.30
2007,08,30,07,19,13.30
2007,08,30,07,20,13.30
2007,08,30,07,21,13.30
2007,08,30,07,22,13.30
2007,08,30,07,23,13.30
2007,08,30,07,24,13.40
2007,08,30,07,25,13.40
2007,08,30,07,26,13.40
2007,08,30,07,27,13.40
2007,08,30,07,28,13.40
2007,08,30,07,29,13.40
2007,08,30,07,30,13.40
2007,08,30,07,31,13.40
2007,08,30,07,32,13.50
2007,08,30,07,33,13.50
2007,08,30,07,34,13.50
2007,08,30,07,35,13.60
2007,08,30,07,36,13.60
2007,08,30,07,37,13.60
2007,08,30,07,38,13.70
2007,08,30,07,39,13.70
2007,08,30,07,40,13.70
2007,08,30,07,41,13.70
2007,08,30,07,42,13.80
2007,08,30,07,43,13.80
2007,08,30,07,44,13.80
2007,08,30,07,45,13.90
2007,08,30,07,46,13.90
2007,08,30,07,47,13.90
2007,08,30,07,48,14.00
2007,08,30,07,49,14.00
2007,08,30,07,50,14.00
2007,08,30,07,51,14.10
2007,08,30,07,52,14.10
2007,08,30,07,53,14.10
2007,08,30,07,54,14.10
2007,08,30,07,55,14.10
2007,08,30,07,56,14.20
2007,08,30,07,57,14.20
2007,08,30,07,58,14.20
2007,08,30,07,59,14.20
2007,08,30,08,00,14.20
2007,08,30,08,01,14.30
2007,08,30,08,02,14.30
2007,08,30,08,03,14.30
2007,08,30,08,04,14.40
2007,08,30,08,05,14.50
2007,08,30,08,06,14.50
2007,08,30,08,07,14.60
2007,08,30,08,08,14.60
2007,08,30,08,09,14.60
2007,08,30,08,10,14.60
2007,08,30,08,11,14.70
2007,08,30,08,12,14.70
2007,08,30,08,13,14.70
2007,08,30,08,14,14.80
2007,08,30,08,15,14.80
2007,08,30,08,16,14.90
2007,08,30,08,17,15.00
2007,08,30,08,18,15.00
2007,08,30,08,19,15.00
2007,08,30,08,20,15.00
2007,08,30,08,21,15.00
2007,08,30,08,22,15.00
2007,08,30,08,23,15.10
2007,08,30,08,24,15.10
2007,08,30,08,25,15.20
2007,08,30,08,26,15.20
2007,08,30,08,27,15.20
2007,08,30,08,28,15.20
2007,08,30,08,29,15.20
2007,08,30,08,30,15.30
2007,08,30,08,31,15.30
2007,08,30,08,32,15.30
2007,08,30,08,33,15.40
2007,08,30,08,34,15.40
2007,08,30,08,35,15.50
2007,08,30,08,36,15.60
2007,08,30,08,37,15.60
2007,08,30,08,38,15.70
2007,08,30,08,39,15.80
2007,08,30,08,40,15.90
2007,08,30,08,41,16.00
2007,08,30,08,42,16.10
2007,08,30,08,43,16.20
2007,08,30,08,44,16.30
2007,08,30,08,45,16.40
2007,08,30,08,46,16.50
2007,08,30,08,47,16.60
2007,08,30,08,48,16.70
2007,08,30,08,49,16.70
2007,08,30,08,50,16.80
2007,08,30,08,51,16.80
2007,08,30,08,52,16.90
2007,08,30,08,53,16.90
2007,08,30,08,54,17.00
2007,08,30,08,55,17.00
2007,08,30,08,56,17.10
2007,08,30,08,57,17.20
2007,08,30,08,58,17.20
2007,08,30,08,59,17.20
2007,08,30,09,00,17.30
2007,08,30,09,01,17.40
2007,08,30,09,02,17.40
2007,08,30,09,03,17.50
2007,08,30,09,04,17.50
2007,08,30,09,05,17.60
2007,08,30,09,06,17.60
2007,08,30,09,07,17.70
2007,08,30,09,08,17.70
2007,08,30,09,09,17.70
2007,08,30,09,10,17.80
2007,08,30,09,11,17.90
2007,08,30,09,12,18.00
2007,08,30,09,13,18.00
2007,08,30,09,14,18.10
2007,08,30,09,15,18.10
2007,08,30,09,16,18.10
2007,08,30,09,17,18.20
2007,08,30,09,18,18.30
2007,08,30,09,19,18.30
2007,08,30,09,20,18.40
2007,08,30,09,21,18.50
2007,08,30,09,22,18.60
2007,08,30,09,23,18.60
2007,08,30,09,24,18.80
2007,08,30,09,25,18.90
2007,08,30,09,26,19.10
2007,08,30,09,27,19.20
2007,08,30,09,28,19.30
2007,08,30,09,29,19.50
2007,08,30,09,30,19.60
2007,08,30,09,31,19.70
2007,08,30,09,32,19.80
2007,08,30,09,33,19.90
2007,08,30,09,34,20.00
2007,08,30,09,35,20.00
2007,08,30,09,36,20.00
2007,08,30,09,37,20.10
2007,08,30,09,38,20.20
2007,08,30,09,39,20.20
2007,08,30,09,40,20.20
2007,08,30,09,41,20.30
2007,08,30,09,42,20.30
2007,08,30,09,43,20.30
2007,08,30,09,44,20.30
2007,08,30,09,45,20.40
2007,08,30,09,46,20.50
2007,08,30,09,47,20.50
2007,08,30,09,48,20.60
2007,08,30,09,49,20.50
2007,08,30,09,50,20.50
2007,08,30,09,51,20.50
2007,08,30,09,52,20.50
2007,08,30,09,53,20.60
2007,08,30,09,54,20.60
2007,08,30,09,55,20.70
2007,08,30,09,56,20.70
2007,08,30,09,57,20.80
2007,08,30,09,58,20.80
2007,08,30,09,59,20.80
2007,08,30,10,00,20.70
2007,08,30,10,01,20.70
2007,08,30,10,02,20.70
2007,08,30,10,03,20.80
2007,08,30,10,04,20.80
2007,08,30,10,05,20.80
2007,08,30,10,06,20.80
2007,08,30,10,07,20.90
2007,08,30,10,08,21.00
2007,08,30,10,09,21.10
2007,08,30,10,10,21.20
2007,08,30,10,11,21.30
2007,08,30,10,12,21.30
2007,08,30,10,13,21.40
2007,08,30,10,14,21.50
2007,08,30,10,15,21.60
2007,08,30,10,16,21.70
2007,08,30,10,17,21.60
2007,08,30,10,18,21.60
2007,08,30,10,19,21.60
2007,08,30,10,20,21.70
2007,08,30,10,21,21.70
2007,08,30,10,22,21.70
2007,08,30,10,23,21.80
2007,08,30,10,24,21.70
2007,08,30,10,25,21.70
2007,08,30,10,26,21.80
2007,08,30,10,27,21.80
2007,08,30,10,28,21.80
2007,08,30,10,29,22.00
2007,08,30,10,30,22.00
2007,08,30,10,31,22.20
2007,08,30,10,32,22.20
2007,08,30,10,33,22.20
2007,08,30,10,34,22.20
2007,08,30,10,35,22.20
2007,08,30,10,36,22.30
2007,08,30,10,37,22.40
2007,08,30,10,38,22.50
2007,08,30,10,39,22.70
2007,08,30,10,40,22.80
2007,08,30,10,41,22.80
2007,08,30,10,42,23.00
2007,08,30,10,43,23.20
2007,08,30,10,44,23.30
2007,08,30,10,45,23.40
2007,08,30,10,46,23.40
2007,08,30,10,47,23.40
2007,08,30,10,48,23.30
2007,08,30,10,49,23.30
2007,08,30,10,50,23.30
2007,08,30,10,51,23.20
2007,08,30,10,52,23.20
2007,08,30,10,53,23.20
2007,08,30,10,54,23.30
2007,08,30,10,55,23.40
2007,08,30,10,56,23.50
2007,08,30,10,57,23.60
2007,08,30,10,58,23.70
2007,08,30,10,59,23.80
2007,08,30,11,00,23.80
2007,08,30,11,01,23.90
2007,08,30,11,02,23.90
2007,08,30,11,03,24.00
2007,08,30,11,04,24.00
2007,08,30,11,05,24.20
2007,08,30,11,06,24.30
2007,08,30,11,07,24.40
2007,08,30,11,08,24.50
2007,08,30,11,09,24.60
2007,08,30,11,10,24.60
2007,08,30,11,11,24.70
2007,08,30,11,12,24.70
2007,08,30,11,13,24.70
2007,08,30,11,14,24.60
2007,08,30,11,15,24.60
2007,08,30,11,16,24.50
2007,08,30,11,17,24.50
2007,08,30,11,18,24.50
2007,08,30,11,19,24.50
2007,08,30,11,20,24.50
2007,08,30,11,21,24.50
2007,08,30,11,22,24.50
2007,08,30,11,23,24.50
2007,08,30,11,24,24.40
2007,08,30,11,25,24.40
2007,08,30,11,26,24.40
2007,08,30,11,27,24.50
2007,08,30,11,28,24.60
2007,08,30,11,29,24.60
2007,08,30,11,30,24.60
2007,08,30,11,31,24.60
2007,08,30,11,32,24.60
2007,08,30,11,33,24.70
2007,08,30,11,34,24.70
2007,08,30,11,35,24.70
2007,08,30,11,36,24.70
2007,08,30,11,37,24.80
2007,08,30,11,38,24.80
2007,08,30,11,39,24.80
2007,08,30,11,40,24.90
2007,08,30,11,41,24.90
2007,08,30,11,42,24.90
2007,08,30,11,43,24.80
2007,08,30,11,44,24.80
2007,08,30,11,45,24.80
2007,08,30,11,46,24.80
2007,08,30,11,47,24.80
2007,08,30,11,48,24.70
2007,08,30,11,49,24.70
2007,08,30,11,50,24.70
2007,08,30,11,51,24.60
2007,08,30,11,52,24.60
2007,08,30,11,53,24.60
2007,08,30,11,54,24.50
2007,08,30,11,55,24.40
2007,08,30,11,56,24.40
2007,08,30,11,57,24.50
2007,08,30,11,58,24.60
2007,08,30,11,59,24.70
2007,08,30,12,00,24.80
2007,08,30,12,01,24.90
2007,08,30,12,02,24.90
2007,08,30,12,03,25.10
2007,08,30,12,04,25.20
2007,08,30,12,05,25.20
2007,08,30,12,06,25.30
2007,08,30,12,07,25.30
2007,08,30,12,08,25.30
2007,08,30,12,09,25.40
2007,08,30,12,10,25.50
2007,08,30,12,11,25.60
2007,08,30,12,12,25.60
2007,08,30,12,13,25.70
2007,08,30,12,14,25.70
2007,08,30,12,15,25.80
2007,08,30,12,16,25.80
2007,08,30,12,17,25.90
2007,08,30,12,18,25.90
2007,08,30,12,19,26.00
2007,08,30,12,20,26.10
2007,08,30,12,21,26.30
2007,08,30,12,22,26.30
2007,08,30,12,23,26.30
2007,08,30,12,24,26.40
2007,08,30,12,25,26.40
2007,08,30,12,26,26.40
2007,08,30,12,27,26.30
2007,08,30,12,28,26.30
2007,08,30,12,29,26.40
2007,08,30,12,30,26.30
2007,08,30,12,31,26.40
2007,08,30,12,32,26.40
2007,08,30,12,33,26.40
2007,08,30,12,34,26.40
2007,08,30,12,35,26.30
2007,08,30,12,36,26.10
2007,08,30,12,37,25.90
2007,08,30,12,38,25.90
2007,08,30,12,39,25.80
2007,08,30,12,40,25.80
2007,08,30,12,41,25.90
2007,08,30,12,42,25.90
2007,08,30,12,43,25.90
2007,08,30,12,44,25.90
2007,08,30,12,45,25.90
2007,08,30,12,46,25.90
2007,08,30,12,47,25.90
2007,08,30,12,48,25.90
2007,08,30,12,49,25.90
2007,08,30,12,50,25.90
2007,08,30,12,51,25.90
2007,08,30,12,52,25.90
2007,08,30,12,53,25.90
2007,08,30,12,54,25.90
2007,08,30,12,55,25.80
2007,08,30,12,56,25.80
2007,08,30,12,57,25.90
2007,08,30,12,58,25.90
2007,08,30,12,59,25.90
2007,08,30,13,00,25.90
2007,08,30,13,01,26.00
2007,08,30,13,02,25.90
2007,08,30,13,03,25.90
2007,08,30,13,04,26.00
2007,08,30,13,05,26.10
2007,08,30,13,06,26.20
2007,08,30,13,07,26.30
2007,08,30,13,08,26.20
2007,08,30,13,09,26.20
2007,08,30,13,10,26.30
2007,08,30,13,11,26.30
2007,08,30,13,12,26.40
2007,08,30,13,13,26.40
2007,08,30,13,14,26.40
2007,08,30,13,15,26.40
2007,08,30,13,16,26.50
2007,08,30,13,17,26.50
2007,08,30,13,18,26.50
2007,08,30,13,19,26.50
2007,08,30,13,20,26.50
2007,08,30,13,21,26.60
2007,08,30,13,22,26.60
2007,08,30,13,23,26.60
2007,08,30,13,24,26.60
2007,08,30,13,25,26.60
2007,08,30,13,26,26.60
2007,08,30,13,27,26.70
2007,08,30,13,28,26.80
2007,08,30,13,29,26.90
2007,08,30,13,30,27.00
2007,08,30,13,31,27.10
2007,08,30,13,32,27.10
2007,08,30,13,33,27.10
2007,08,30,13,34,27.10
2007,08,30,13,35,27.00
2007,08,30,13,36,27.00
2007,08,30,13,37,26.90
2007,08,30,13,38,26.80
2007,08,30,13,39,26.80
2007,08,30,13,40,26.90
2007,08,30,13,41,26.90
2007,08,30,13,42,26.90
2007,08,30,13,43,27.00
2007,08,30,13,44,26.90
2007,08,30,13,45,26.90
2007,08,30,13,46,26.90
2007,08,30,13,47,27.00
2007,08,30,13,48,26.90
2007,08,30,13,49,26.90
2007,08,30,13,50,26.90
2007,08,30,13,51,26.90
2007,08,30,13,52,26.90
2007,08,30,13,53,26.80
2007,08,30,13,54,26.80
2007,08,30,13,55,26.80
2007,08,30,13,56,26.80
2007,08,30,13,57,26.90
2007,08,30,13,58,26.90
2007,08,30,13,59,26.90
2007,08,30,14,00,26.80
2007,08,30,14,01,26.80
2007,08,30,14,02,26.70
2007,08,30,14,03,26.60
2007,08,30,14,04,26.60
2007,08,30,14,05,26.70
2007,08,30,14,06,26.70
2007,08,30,14,07,26.70
2007,08,30,14,08,26.80
2007,08,30,14,09,26.80
2007,08,30,14,10,26.90
2007,08,30,14,11,26.90
2007,08,30,14,12,26.80
2007,08,30,14,13,26.80
2007,08,30,14,14,26.70
2007,08,30,14,15,26.60
2007,08,30,14,16,26.60
2007,08,30,14,17,26.60
2007,08,30,14,18,26.50
2007,08,30,14,19,26.40
2007,08,30,14,20,26.50
2007,08,30,14,21,26.50
2007,08,30,14,22,26.60
2007,08,30,14,23,26.60
2007,08,30,14,24,26.60
2007,08,30,14,25,26.70
2007,08,30,14,26,26.80
2007,08,30,14,27,26.80
2007,08,30,14,28,26.80
2007,08,30,14,29,26.90
2007,08,30,14,30,27.00
2007,08,30,14,31,27.00
2007,08,30,14,32,27.00
2007,08,30,14,33,27.00
2007,08,30,14,34,27.00
2007,08,30,14,35,27.00
2007,08,30,14,36,26.90
2007,08,30,14,37,26.90
2007,08,30,14,38,26.80
2007,08,30,14,39,26.80
2007,08,30,14,40,26.80
2007,08,30,14,41,26.80
2007,08,30,14,42,26.80
2007,08,30,14,43,26.70
2007,08,30,14,44,26.60
2007,08,30,14,45,26.60
2007,08,30,14,46,26.60
2007,08,30,14,47,26.60
2007,08,30,14,48,26.60
2007,08,30,14,49,26.60
2007,08,30,14,50,26.60
2007,08,30,14,51,26.50
2007,08,30,14,52,26.50
2007,08,30,14,53,26.60
2007,08,30,14,54,26.70
2007,08,30,14,55,26.70
2007,08,30,14,56,26.70
2007,08,30,14,57,26.70
2007,08,30,14,58,26.70
2007,08,30,14,59,26.70
2007,08,30,15,00,26.70
2007,08,30,15,01,26.70
2007,08,30,15,02,26.70
2007,08,30,15,03,26.70
2007,08,30,15,04,26.70
2007,08,30,15,05,26.70
2007,08,30,15,06,26.50
2007,08,30,15,07,26.40
2007,08,30,15,08,26.50
2007,08,30,15,09,26.50
2007,08,30,15,10,26.60
2007,08,30,15,11,26.60
2007,08,30,15,12,26.70
2007,08,30,15,13,26.70
2007,08,30,15,14,26.70
2007,08,30,15,15,26.70
2007,08,30,15,16,26.70
2007,08,30,15,17,26.70
2007,08,30,15,18,26.60
2007,08,30,15,19,26.60
2007,08,30,15,20,26.50
2007,08,30,15,21,26.50
2007,08,30,15,22,26.50
2007,08,30,15,23,26.50
2007,08,30,15,24,26.60
2007,08,30,15,25,26.60
2007,08,30,15,26,26.60
2007,08,30,15,27,26.50
2007,08,30,15,28,26.50
2007,08,30,15,29,26.50
2007,08,30,15,30,26.60
2007,08,30,15,31,26.60
2007,08,30,15,32,26.50
2007,08,30,15,33,26.50
2007,08,30,15,34,26.40
2007,08,30,15,35,26.40
2007,08,30,15,36,26.40
2007,08,30,15,37,26.40
2007,08,30,15,38,26.40
2007,08,30,15,39,26.40
2007,08,30,15,40,26.50
2007,08,30,15,41,26.40
2007,08,30,15,42,26.40
2007,08,30,15,43,26.40
2007,08,30,15,44,26.40
2007,08,30,15,45,26.40
2007,08,30,15,46,26.40
2007,08,30,15,47,26.40
2007,08,30,15,48,26.40
2007,08,30,15,49,26.40
2007,08,30,15,50,26.40
2007,08,30,15,51,26.30
2007,08,30,15,52,26.20
2007,08,30,15,53,26.00
2007,08,30,15,54,25.90
2007,08,30,15,55,25.90
2007,08,30,15,56,25.90
2007,08,30,15,57,25.90
2007,08,30,15,58,25.90
2007,08,30,15,59,25.90
2007,08,30,16,00,25.90
2007,08,30,16,01,25.90
2007,08,30,16,02,25.90
2007,08,30,16,03,25.80
2007,08,30,16,04,25.80
2007,08,30,16,05,25.80
2007,08,30,16,06,25.80
2007,08,30,16,07,25.80
2007,08,30,16,08,25.70
2007,08,30,16,09,25.70
2007,08,30,16,10,25.50
2007,08,30,16,11,25.40
2007,08,30,16,12,25.30
2007,08,30,16,13,25.20
2007,08,30,16,14,25.20
2007,08,30,16,15,25.10
2007,08,30,16,16,25.10
2007,08,30,16,17,25.10
2007,08,30,16,18,25.10
2007,08,30,16,19,25.10
2007,08,30,16,20,25.10
2007,08,30,16,21,25.10
2007,08,30,16,22,25.10
2007,08,30,16,23,25.20
2007,08,30,16,24,25.20
2007,08,30,16,25,25.30
2007,08,30,16,26,25.30
2007,08,30,16,27,25.20
2007,08,30,16,28,25.20
2007,08,30,16,29,25.10
2007,08,30,16,30,25.10
2007,08,30,16,31,25.10
2007,08,30,16,32,25.10
2007,08,30,16,33,25.10
2007,08,30,16,34,25.10
2007,08,30,16,35,25.00
2007,08,30,16,36,24.80
2007,08,30,16,37,24.70
2007,08,30,16,38,24.60
2007,08,30,16,39,24.60
2007,08,30,16,40,24.60
2007,08,30,16,41,24.60
2007,08,30,16,42,24.60
2007,08,30,16,43,24.60
2007,08,30,16,44,24.50
2007,08,30,16,45,24.40
2007,08,30,16,46,24.30
2007,08,30,16,47,24.30
2007,08,30,16,48,24.30
2007,08,30,16,49,24.30
2007,08,30,16,50,24.30
2007,08,30,16,51,24.40
2007,08,30,16,52,24.40
2007,08,30,16,53,24.50
2007,08,30,16,54,24.60
2007,08,30,16,55,24.60
2007,08,30,16,56,24.50
2007,08,30,16,57,24.40
2007,08,30,16,58,24.40
2007,08,30,16,59,24.40
2007,08,30,17,00,24.50
2007,08,30,17,01,24.50
2007,08,30,17,02,24.40
2007,08,30,17,03,24.30
2007,08,30,17,04,24.30
2007,08,30,17,05,24.40
2007,08,30,17,06,24.40
2007,08,30,17,07,24.50
2007,08,30,17,08,24.50
2007,08,30,17,09,24.60
2007,08,30,17,10,24.60
2007,08,30,17,11,24.60
2007,08,30,17,12,24.60
2007,08,30,17,13,24.60
2007,08,30,17,14,24.70
2007,08,30,17,15,24.70
2007,08,30,17,16,24.70
2007,08,30,17,17,24.60
2007,08,30,17,18,24.40
2007,08,30,17,19,24.40